Location: Bothwell
(42.3833°S, 147.0000°E)
Time: 12:31:57
(UTC+11:00)

OBJECT D - Pass Details

Date: 20 November 2025
Orbit: 437 x 585 km, 63.5° (Epoch: 12 December)

Event Time Altitude Azimuth Distance (km) Brightness Sun altitude
Exits shadow 03:36:02 15° 24° (NNE) 1,564 ? -18.0°
Maximum altitude 03:38:17 23° 65° (ENE) 1,239 ? -17.8°
Drops below altitude 10° 03:41:32 10° 117° (ESE) 1,837 ? -17.4°
Sets 03:44:03 0° 131° (SE) 2,710 ? -17.1°
